DW0416 Weather Reports


Display with metric or nautical units.
time (UTC)temp
F
wind
direction
speed
MPH
gust
MPH
rain 1hr
in
rain 24hr
in
rain mn
in
humidity
%
barometer
mb
20260904220024 77 266 3.0 9.0 0.00 0.00 0.00 20 1016.6
20260904214540 79 183 8.0 16.0 0.00 0.00 0.00 19 1016.8
20260904213033 79 152 7.0 15.0 0.00 0.00 0.00 18 1016.8
20260904211532 78 165 7.0 18.0 0.00 0.00 0.00 20 1016.9
20260904210016 78 152 3.0 10.0 0.00 0.00 0.00 20 1016.9
20260904204524 78 151 7.0 13.0 0.00 0.00 0.00 19 1016.9
20260904203032 77 155 3.0 7.0 0.00 0.00 0.00 21 1017.0
20260904201533 77 248 5.0 12.0 0.00 0.00 0.00 21 1017.1
20260904200034 77 139 6.0 11.0 0.00 0.00 0.00 19 1017.3
20260904194524 75 221 5.0 10.0 0.00 0.00 0.00 21 1017.1
20260904193036 75 146 8.0 16.0 0.00 0.00 0.00 21 1017.3
20260904191534 74 160 8.0 13.0 0.00 0.00 0.00 22 1017.6
20260904190032 75 161 7.0 13.0 0.00 0.00 0.00 21 1017.5
20260904184538 74 230 6.0 11.0 0.00 0.00 0.00 23 1017.9
20260904183024 74 56 7.0 15.0 0.00 0.00 0.00 21 1018.0
20260904181529 73 181 8.0 15.0 0.00 0.00 0.00 23 1018.0
20260904180032 73 190 4.0 16.0 0.00 0.00 0.00 23 1018.1
20260904174537 72 129 8.0 18.0 0.00 0.00 0.00 23 1018.0
20260904173042 72 129 9.0 16.0 0.00 0.00 0.00 22 1018.1
20260904171503 72 195 4.0 15.0 0.00 0.00 0.00 23 1018.0
20260904170019 70 171 7.0 16.0 0.00 0.00 0.00 24 1017.8
20260904164505 67 65 2.0 8.0 0.00 0.00 0.00 35 1017.9
20260904163010 60 198 1.0 5.0 0.00 0.00 0.00 50 1018.0
20260904161504 56 266 2.0 4.0 0.00 0.00 0.00 59 1018.1
20260904160008 54 297 2.0 4.0 0.00 0.00 0.00 62 1018.2
20260904154510 51 184 0.0 4.0 0.00 0.00 0.00 65 1018.3
20260904153012 49 197 1.0 5.0 0.00 0.00 0.00 68 1018.5
20260904151515 47 49 1.0 4.0 0.00 0.00 0.00 72 1018.5
20260904150013 45 166 0.0 2.0 0.00 0.00 0.00 73 1018.6
20260904144509 40 91 0.0 2.0 0.00 0.00 0.00 82 1018.7
20260904143011 39 45 0.0 2.0 0.00 0.00 0.00 84 1018.5
20260904141521 39 67 0.0 3.0 0.00 0.00 0.00 85 1018.5
20260904140009 39 285 0.0 2.0 0.00 0.00 0.00 82 1018.5
20260904134511 39 218 0.0 0.0 0.00 0.00 0.00 82 1018.3
20260904133008 39 84 0.0 0.0 0.00 0.00 0.00 82 1018.0
20260904131510 39 205 0.0 0.0 0.00 0.00 0.00 80 1018.0
20260904130011 39 57 0.0 0.0 0.00 0.00 0.00 78 1017.6
20260904124510 39 53 0.0 0.0 0.00 0.00 0.00 78 1017.3
20260904123010 40 49 0.0 0.0 0.00 0.00 0.00 77 1017.0
20260904121518 40 49 0.0 0.0 0.00 0.00 0.00 76 1016.8
20260904120015 41 49 0.0 0.0 0.00 0.00 0.00 76 1016.7
20260904114527 41 80 0.0 0.0 0.00 0.00 0.00 75 1016.8
20260904113012 41 41 0.0 0.0 0.00 0.00 0.00 75 1016.7
20260904111516 41 41 0.0 0.0 0.00 0.00 0.00 74 1016.5
20260904110023 41 42 0.0 0.0 0.00 0.00 0.00 74 1016.4
20260904104515 42 73 0.0 0.0 0.00 0.00 0.00 72 1016.3
20260904103015 43 126 0.0 0.0 0.00 0.00 0.00 73 1016.2
20260904101520 43 127 0.0 0.0 0.00 0.00 0.00 71 1016.1
20260904100016 43 277 0.0 0.0 0.00 0.00 0.00 71 1016.1
20260904094518 44 271 0.0 0.0 0.00 0.00 0.00 69 1016.0
20260904093018 44 46 0.0 0.0 0.00 0.00 0.00 67 1015.8
20260904091518 44 46 0.0 0.0 0.00 0.00 0.00 65 1015.8
20260904090023 45 46 0.0 0.0 0.00 0.00 0.00 64 1015.6
20260904084519 45 44 0.0 0.0 0.00 0.00 0.00 62 1015.7
20260904083028 46 29 0.0 0.0 0.00 0.00 0.00 62 1015.6
20260904081519 46 28 0.0 0.0 0.00 0.00 0.00 64 1015.7
20260904080020 47 79 0.0 0.0 0.00 0.00 0.00 62 1015.7
20260904074535 48 112 0.0 0.0 0.00 0.00 0.00 61 1015.7
20260904073022 48 112 0.0 0.0 0.00 0.00 0.00 62 1015.7
20260904071532 48 139 0.0 0.0 0.00 0.00 0.00 64 1015.8
20260904070027 48 75 0.0 2.0 0.00 0.00 0.00 59 1015.9
20260904064526 48 148 0.0 0.0 0.00 0.00 0.00 60 1015.9
20260904063037 50 148 0.0 0.0 0.00 0.00 0.00 52 1015.8
20260904061514 49 155 0.0 0.0 0.00 0.00 0.00 53 1015.9
20260904060018 50 155 0.0 0.0 0.00 0.00 0.00 51 1015.9
20260904054531 52 155 0.0 1.0 0.00 0.00 0.00 51 1015.9
20260904053032 52 59 0.0 0.0 0.00 0.00 0.00 47 1015.8
20260904051511 52 59 0.0 0.0 0.00 0.00 0.00 49 1016.0
20260904050021 53 50 0.0 3.0 0.00 0.00 0.00 46 1015.8
20260904044530 53 10 0.0 2.0 0.00 0.00 0.00 47 1015.9
20260904043027 54 76 0.0 1.0 0.00 0.00 0.00 45 1016.0
20260904041530 55 104 0.0 1.0 0.00 0.00 0.00 42 1016.0
20260904040012 56 48 0.0 0.0 0.00 0.00 0.00 41 1016.0
20260904034519 57 48 0.0 1.0 0.00 0.00 0.00 42 1016.1
20260904033025 59 30 1.0 3.0 0.00 0.00 0.00 36 1016.1
20260904031533 60 266 0.0 2.0 0.00 0.00 0.00 37 1016.0
20260904030031 64 105 1.0 3.0 0.00 0.00 0.00 27 1015.9
20260904024513 65 148 0.0 7.0 0.00 0.00 0.00 28 1015.9
20260904023020 65 41 3.0 5.0 0.00 0.00 0.00 29 1015.8
20260904021531 64 122 1.0 3.0 0.00 0.00 0.00 31 1015.9
20260904020031 66 113 0.0 1.0 0.00 0.00 0.00 31 1015.8
20260904014532 68 14 1.0 4.0 0.00 0.00 0.00 34 1015.9
20260904013017 71 109 0.0 2.0 0.00 0.00 0.00 25 1015.6
20260904011533 73 162 0.0 1.0 0.00 0.00 0.00 23 1015.6
20260904010040 71 281 0.0 3.0 0.00 0.00 0.00 25 1015.6
20260904004531 72 121 0.0 2.0 0.00 0.00 0.00 25 1015.6
20260904003033 72 190 0.0 3.0 0.00 0.00 0.00 25 1015.7
20260904001531 73 175 3.0 6.0 0.00 0.00 0.00 23 1015.6
20260904000032 73 142 2.0 8.0 0.00 0.00 0.00 23 1015.6
20260903234534 73 107 4.0 7.0 0.00 0.00 0.00 24 1015.7
20260903233033 73 141 3.0 9.0 0.00 0.00 0.00 24 1015.8
20260903231530 74 140 6.0 12.0 0.00 0.00 0.00 22 1015.9
20260903230025 74 170 4.0 8.0 0.00 0.00 0.00 23 1016.1
20260903224508 73 227 4.0 9.0 0.00 0.00 0.00 22 1016.3
20260903223014 71 221 4.0 7.0 0.00 0.00 0.00 25 1016.5
20260903221532 71 219 5.0 10.0 0.00 0.00 0.00 23 1016.7